Location: Dvur Kralove nad Labem
(50.4330°N, 15.8170°E)
Time: 15:02:54
(UTC+02:00)

ISS - Pass Details

Date: 25 May 2018
Orbit: 402 x 407 km, 51.6° (Epoch: 24 May)

Event Time Altitude Azimuth Distance (km) Brightness Sun altitude
Rises 23:36:15 0° 276° (W) 2,320 0.4 -16.5°
Reaches altitude 10° 23:38:21 10° 279° (W) 1,460 -0.7 -16.6°
Maximum altitude 23:41:36 70° 3° (N) 433 -3.6 -16.7°
Enters shadow 23:44:37 12° 88° (E) 1,359 -1.3 -16.9°
